Middletown, PA

5:43 AM EDT on August 18, 2017 (GMT -0400)
Harrisburg International

Weather History for KMDT - September, 2013

Change the Weather History Date:

Saturday, September 7, 2013

  Actual Average Record
Temperature  
Mean Temperature 66 °F 69 °F  
Max Temperature 81 °F 79 °F 96 °F (1985)
Min Temperature 50 °F 60 °F 46 °F (1976)
Degree Days  
Heating Degree Days 0 1  
Month to date heating degree days 3 2  
Since 1 July heating degree days 3 4  
Cooling Degree Days 1 5  
Month to date cooling degree days 50 41  
Year to date cooling degree days 1002 937  
Growing Degree Days 14 (Base 50)    
Moisture  
Dew Point 52 °F    
Average Humidity 63    
Maximum Humidity 89    
Minimum Humidity 36    
Precipitation  
Precipitation 0.00 in 0.11 in 7.71 in (2011)
Month to date precipitation 0.01 0.82  
Year to date precipitation 24.28 27.76  
Sea Level Pressure  
Sea Level Pressure 30.04 in    
Wind  
Wind Speed 1 mph (South)    
Max Wind Speed 9 mph    
Max Gust Speed 12 mph    
Visibility 10 miles    
Events      
T = Trace of Precipitation, MM = Missing Value Source: NWS Daily Summary

Daily Weather History Graph

Daily Weather History Graph

Search for Another Location

Airport or City:

Trip Planner

Search our weather history database for the weather conditions in past years. The results will help you decide how hot, cold, wet, or windy it might be!

Date:

Astronomy

Sep. 07, 2013 Rise Set
Actual Time 6:40 AM EDT 7:28 PM EDT
Civil Twilight 6:12 AM EDT 7:56 PM EDT
Nautical Twilight 5:40 AM EDT 8:28 PM EDT
Astronomical Twilight 5:06 AM EDT 9:02 PM EDT
Moon 8:52 AM EDT (9/7) 8:25 PM EDT (9/7)
Length of Visible Light 13h 43m
Length of Day
12h 48m
Waxing Crescent, 5% of the Moon is Illuminated
Sep 7
Waxing Crescent
Sep 12
First Quarter
Sep 19
Full
Sep 26
Last Quarter
Oct 4
New

Hourly Weather History & Observations

Time (EDT) Temp. Dew Point Humidity Pressure Visibility Wind Dir Wind Speed Gust Speed Precip Events Conditions
12:56 AM 54.0 °F 48.9 °F 83% 30.15 in 10.0 mi NNE 3.5 mph - N/A   Scattered Clouds
1:56 AM 53.1 °F 48.0 °F 83% 30.14 in 10.0 mi Calm Calm - N/A   Partly Cloudy
2:56 AM 52.0 °F 48.0 °F 86% 30.14 in 10.0 mi Calm Calm - N/A   Mostly Cloudy
3:56 AM 52.0 °F 48.0 °F 86% 30.13 in 10.0 mi Calm Calm - N/A   Mostly Cloudy
4:56 AM 52.0 °F 46.9 °F 83% 30.13 in 10.0 mi Calm Calm - N/A   Mostly Cloudy
5:56 AM 51.1 °F 46.9 °F 86% 30.12 in 10.0 mi Calm Calm - N/A   Scattered Clouds
6:56 AM 50.0 °F 46.9 °F 89% 30.13 in 10.0 mi ENE 3.5 mph - N/A   Scattered Clouds
7:56 AM 54.0 °F 48.0 °F 80% 30.13 in 10.0 mi Calm Calm - N/A   Partly Cloudy
8:56 AM 57.0 °F 51.1 °F 81% 30.12 in 10.0 mi Calm Calm - N/A   Partly Cloudy
9:56 AM 63.0 °F 52.0 °F 67% 30.11 in 10.0 mi Calm Calm - N/A   Scattered Clouds
10:56 AM 66.9 °F 53.1 °F 61% 30.11 in 10.0 mi Calm Calm - N/A   Scattered Clouds
11:56 AM 71.1 °F 54.0 °F 55% 30.09 in 10.0 mi South 3.5 mph - N/A   Scattered Clouds
12:56 PM 75.0 °F 51.1 °F 43% 30.05 in 10.0 mi Calm Calm - N/A   Mostly Cloudy
1:56 PM 77.0 °F 51.1 °F 40% 30.02 in 10.0 mi Variable 3.5 mph - N/A   Mostly Cloudy
2:56 PM 77.0 °F 48.9 °F 37% 29.99 in 10.0 mi Calm Calm - N/A   Mostly Cloudy
3:56 PM 79.0 °F 51.1 °F 38% 29.97 in 10.0 mi West 4.6 mph - N/A   Mostly Cloudy
4:56 PM 79.0 °F 52.0 °F 39% 29.95 in 10.0 mi Calm Calm - N/A   Mostly Cloudy
5:56 PM 77.0 °F 57.9 °F 52% 29.94 in 10.0 mi Calm Calm - N/A   Mostly Cloudy
6:56 PM 71.1 °F 62.1 °F 73% 29.94 in 10.0 mi South 3.5 mph - N/A   Mostly Cloudy
7:56 PM 71.1 °F 60.1 °F 68% 29.93 in 10.0 mi SW 3.5 mph - N/A   Mostly Cloudy
8:56 PM 70.0 °F 59.0 °F 68% 29.93 in 10.0 mi Calm Calm - N/A   Mostly Cloudy
9:56 PM 69.1 °F 57.9 °F 68% 29.94 in 10.0 mi Calm Calm - N/A   Mostly Cloudy
10:56 PM 68.0 °F 57.9 °F 70% 29.93 in 10.0 mi Calm Calm - N/A   Mostly Cloudy
11:56 PM 68.0 °F 57.0 °F 68% 29.93 in 10.0 mi Calm Calm - N/A   Overcast